Location: Breitenfeld
(46.8500°N, 15.6333°E)
Time: 11:10:02
(UTC+00:00)

Transit 4B - Pass Details

Date: 04 June 2022
Orbit: 948 x 1097 km, 32.4° (Epoch: 01 July)

Event Time Altitude Azimuth Distance (km) Brightness Sun altitude
Exits shadow 23:27:34 14° 132° (SE) 2,531 10.3 -20.3°
Drops below altitude 10° 23:28:38 10° 125° (SE) 2,790 10.6 -20.2°
Sets 23:31:49 0° 112° (ESE) 3,713 11.4 -20.2°
